Johnstown, PA

5:20 PM EDT on April 26, 2018 (GMT -0400)
Johnstown-Cambria County

Weather History for KJST - May, 2013

Change the Weather History Date:

Monday, May 13, 2013

  Actual Average Record
Temperature  
Mean Temperature 38 °F 56 °F  
Max Temperature 46 °F 66 °F 89 °F (1991)
Min Temperature 32 °F 46 °F 28 °F (1941)
Degree Days  
Heating Degree Days 27 9  
Month to date heating degree days 142  
Since 1 July heating degree days 6473  
Cooling Degree Days 0 0  
Month to date cooling degree days 0  
Year to date cooling degree days 5  
Moisture  
Dew Point 24 °F    
Average Humidity 62    
Maximum Humidity 87    
Minimum Humidity 40    
Precipitation  
Precipitation 0.00 in 0.14 in 1.54 in (1980)
Month to date precipitation 1.69  
Year to date precipitation 13.80  
Sea Level Pressure  
Sea Level Pressure 30.08 in    
Wind  
Wind Speed 10 mph (WNW)    
Max Wind Speed 20 mph    
Max Gust Speed 26 mph    
Visibility 10 miles    
Events      
T = Trace of Precipitation, MM = Missing Value Source: NWS Daily Summary

Daily Weather History Graph

Daily Weather History Graph

Search for Another Location

Airport or City:

Astronomy

May. 13, 2013 Rise Set
Actual Time 6:00 AM EDT 8:22 PM EDT
Civil Twilight 5:30 AM EDT 8:53 PM EDT
Nautical Twilight 4:52 AM EDT 9:31 PM EDT
Astronomical Twilight 4:10 AM EDT 10:13 PM EDT
Moon 8:45 AM EDT (5/13) 11:31 PM EDT (5/13)
Length of Visible Light 15h 23m
Length of Day
14h 21m
Waxing Crescent, 12% of the Moon is Illuminated
May 13
Waxing Crescent
May 18
First Quarter
May 25
Full
May 31
Last Quarter
Jun 8
New

Hourly Weather History & Observations

Time (EDT) Temp. Windchill Dew Point Humidity Pressure Visibility Wind Dir Wind Speed Gust Speed Precip Events Conditions
12:54 AM 37.0 °F 29.8 °F 25.0 °F 62% 30.03 in 10.0 mi West 10.4 mph - N/A   Clear
1:54 AM 37.9 °F 30.5 °F 25.0 °F 60% 30.02 in 10.0 mi West 11.5 mph - N/A   Overcast
2:54 AM 35.1 °F 26.4 °F 28.0 °F 76% 30.02 in 10.0 mi NW 12.7 mph 21.9 mph N/A   Mostly Cloudy
3:18 AM 33.8 °F 25.3 °F 28.4 °F 81% 29.98 in 10.0 mi NW 11.5 mph - N/A   Overcast
3:54 AM 34.0 °F 28.0 °F 28.0 °F 79% 30.04 in 10.0 mi WNW 6.9 mph - N/A   Overcast
4:54 AM 33.1 °F 26.1 °F 27.0 °F 78% 30.04 in 10.0 mi WNW 8.1 mph - N/A   Overcast
5:34 AM 32.0 °F 25.6 °F 28.4 °F 87% 29.99 in 10.0 mi WNW 6.9 mph - N/A   Overcast
5:54 AM 32.0 °F 26.4 °F 28.0 °F 85% 30.04 in 10.0 mi West 5.8 mph - N/A   Overcast
6:11 AM 32.0 °F 24.8 °F 26.6 °F 80% 29.99 in 10.0 mi WNW 8.1 mph - N/A   Overcast
6:38 AM 32.0 °F 25.6 °F 28.4 °F 87% 30.00 in 10.0 mi West 6.9 mph - N/A   Overcast
6:54 AM 32.0 °F 26.4 °F 28.0 °F 85% 30.06 in 10.0 mi WNW 5.8 mph - N/A   Overcast
7:54 AM 34.0 °F 27.2 °F 27.0 °F 75% 30.08 in 10.0 mi WNW 8.1 mph - N/A   Mostly Cloudy
8:54 AM 34.0 °F 26.6 °F 23.0 °F 64% 30.11 in 10.0 mi West 9.2 mph - N/A   Overcast
9:54 AM 37.0 °F 28.9 °F 24.1 °F 59% 30.12 in 10.0 mi West 12.7 mph 19.6 mph 0.00 in   Mostly Cloudy
10:54 AM 39.0 °F 29.3 °F 23.0 °F 53% 30.11 in 10.0 mi WSW 19.6 mph 26.5 mph 0.00 in   Mostly Cloudy
11:54 AM 41.0 °F 33.5 °F 21.9 °F 47% 30.12 in 10.0 mi WNW 13.8 mph 19.6 mph 0.00 in   Overcast
12:54 PM 43.0 °F 36.4 °F 21.9 °F 43% 30.12 in 10.0 mi WNW 12.7 mph 20.7 mph N/A   Overcast
1:54 PM 42.1 °F 36.6 °F 21.0 °F 43% 30.11 in 10.0 mi NW 9.2 mph 20.7 mph N/A   Overcast
2:54 PM 43.0 °F 36.8 °F 21.0 °F 42% 30.12 in 10.0 mi NW 11.5 mph 24.2 mph N/A   Overcast
4:54 PM 44.1 °F 37.1 °F 21.0 °F 40% 30.10 in 10.0 mi NW 15.0 mph 20.7 mph N/A   Overcast
5:54 PM 43.0 °F 36.0 °F 19.9 °F 40% 30.11 in 10.0 mi WNW 13.8 mph 23.0 mph N/A   Mostly Cloudy
6:54 PM 42.1 °F 35.2 °F 19.9 °F 41% 30.11 in 10.0 mi NNW 12.7 mph 20.7 mph N/A   Mostly Cloudy
8:54 PM 39.0 °F 34.0 °F 19.9 °F 46% 30.14 in 10.0 mi NW 6.9 mph - N/A   Clear
9:54 PM 37.0 °F 30.4 °F 21.9 °F 54% 30.17 in 10.0 mi NNW 9.2 mph - N/A   Clear
10:54 PM 36.0 °F 29.6 °F 21.9 °F 57% 30.18 in 10.0 mi NNW 8.1 mph - N/A   Clear
11:54 PM 34.0 °F 29.8 °F 21.0 °F 59% 30.18 in 10.0 mi NNW 4.6 mph - N/A   Clear